Theta_e
290 289 288 287 286 285 284 285 285 284 283 283 283 283 283 282 282 283 283 282 282 282
288 287 286 285 285 284 284 283 283 282 281 281 281 281 281 281 281 282 282 282 282 281
287 286 285 285 283 283 282 282 281 280 280 280 280 280 280 280 280 280 280 280 280 280
286 285 284 283 282 281 281 280 279 279 279 279 279 279 278 278 278 277 277 278 278 277
284 283 281 280 280 280 279 279 279 278 278 277 277 277 276 276 276 276 275 276 275 275
282 280 279 279 279 278 278 277 278 277 276 276 276 275 275 275 275 275 275 274 274 274
279 278 278 278 277 277 277 276 276 276 275 275 274 274 274 274 274 274 274 275 275 274
278 278 277 276 276 276 275 275 275 274 274 274 274 274 274 274 274 274 274 275 275 274
277 276 275 275 275 274 273 273 273 273 272 272 273 275 276 276 274 274 273 272 274 274
275 274 274 274 273 272 272 272 272 272 272 272 272 275 275 276 274 273 273 273 273 273
274 273 272 271 271 271 271 271 271 271 271 271 271 274 274 275 274 273 273 273 273 273
273 272 271 270 270 270 271 270 270 270 270 269 269 272 274 275 273 273 273 274 275 274
272 270 269 269 269 270 270 269 270 269 269 269 268 272 274 275 274 272 273 274 275 275
270 269 269 269 269 268 267 268 267 267 269 270 271 271 274 276 274 273 273 272 271 272
Wind_Speed
14 9 9 9 7 6 6 5 6 6 7 9 10 9 10 8 9 10 10 13 11 10
13 12 10 10 9 7 7 6 6 7 8 9 10 11 11 8 11 11 11 12 12 12
14 13 11 10 10 9 8 7 7 8 9 10 10 11 12 10 11 12 10 10 14 14
14 13 12 10 9 9 7 7 8 8 9 10 11 12 11 12 13 14 14 14 15 17
14 13 12 11 9 8 8 7 7 8 9 10 11 11 12 13 13 14 15 16 16 17
14 13 11 9 8 8 7 8 8 8 10 10 11 11 11 13 14 14 15 16 17 17
14 12 11 9 8 7 7 7 7 8 9 9 10 11 12 13 14 15 15 16 18 18
13 12 10 9 8 7 7 7 7 7 8 9 9 9 11 13 14 16 17 17 17 18
13 11 9 8 7 6 5 6 6 7 8 10 8 14 18 18 14 16 18 18 18 18
13 11 10 8 7 6 7 6 6 7 8 9 11 16 18 22 14 16 17 18 19 19
12 11 10 9 8 7 6 6 5 6 8 9 10 16 20 23 15 15 18 19 21 22
12 12 10 8 8 6 4 4 5 6 7 8 10 17 21 21 15 16 19 19 19 21
11 10 9 8 6 4 3 4 4 6 7 9 10 17 20 20 11 16 15 19 18 26
10 9 8 7 4 4 4 3 4 6 7 9 8 10 21 23 14 13 15 15 16 14
Wind_Direction
191 189 189 191 195 210 226 242 253 265 272 274 276 279 283 281 277 280 277 274 267 266
187 185 182 183 195 208 222 232 249 260 269 274 276 277 279 275 277 273 271 270 269 266
182 182 181 185 196 202 212 220 236 249 258 267 273 277 276 273 274 278 277 277 275 272
178 178 183 188 194 201 204 215 235 247 260 269 272 273 276 278 282 280 279 276 273 272
170 176 181 187 189 192 204 217 234 251 260 266 270 276 278 280 282 281 281 278 276 275
174 177 178 183 183 190 204 220 232 244 254 262 272 279 281 282 284 280 277 279 279 278
173 171 170 173 183 197 209 225 239 246 263 276 282 283 284 284 284 283 281 281 279 278
163 161 159 174 187 191 209 232 250 262 270 277 276 279 288 289 288 288 286 284 282 278
156 150 162 171 182 199 224 241 254 264 276 278 284 288 293 295 295 296 291 289 286 283
152 154 161 165 177 203 222 237 256 266 271 283 287 289 300 305 298 291 291 291 289 288
152 149 153 166 190 204 213 229 252 276 287 283 290 304 307 305 301 295 291 288 286 286
157 149 154 174 192 201 208 246 268 271 280 293 294 302 305 314 307 297 294 292 288 289
143 144 153 169 180 189 221 244 266 289 295 285 283 295 316 316 305 301 303 301 302 304
133 139 146 156 169 185 220 255 289 290 294 280 300 311 315 318 314 310 311 314 310 307